This demonstration page uses our WeatherBlox Daily Observations layout. Learn more.

Left ArrowRight Arrow

Hourly Observations for October 4, 2016

Temp ( °F °C ) Dew Point ( °F °C ) Humidity (%) Winds ( mph kmh ) Pressure ( in mb ) Visibility ( mi km ) Precip ( " mm )
12:54 am 00:54 Clear 69 20.6 58 14.4 68 68 SSE 23 37 29.65 1004 10 16.0934 0 0
1:54 am 01:54 Mostly Cloudy 68 20 58 14.4 70 70 SSE 20 31 29.65 1004 10 16.0934 0 0.0254
2:54 am 02:54 Mostly Cloudy 68 20 57 13.9 68 68 SSE 18 30 29.63 1003 10 16.0934 0 0
3:54 am 03:54 Clear 67 19.4 57 13.9 71 71 SSE 15 24 29.61 1003 10 16.0934 0 0
4:54 am 04:54 Mostly Cloudy 67 19.4 57 13.9 71 71 SSE 16 26 29.62 1003 10 16.0934 0 0
5:43 am 05:43 Mostly Cloudy with Nearby Thunderstorms 67 19.4 56 13.3 68 68 SSE 10 17 29.65 1004 10 16.0934 0 0
5:54 am 05:54 Mostly Cloudy 67 19.4 56 13.3 68 68 SSE 10 17 29.65 1004 10 16.0934 0 0
6:23 am 06:23 Cloudy with Nearby Thunderstorms 66 18.9 57 13.9 73 73 SSE 13 20 29.65 1004 10 16.0934 0 0.0254
6:49 am 06:49 Cloudy 66 19 57 14 73 73 SSE 9 15 29.65 1004 10 16.0934 0 0
6:54 am 06:54 Cloudy with Light Rain 66 18.9 57 13.9 73 73 SSE 8 13 29.66 1004 10 16.0934 0 0.0254
7:36 am 07:36 Cloudy with Nearby Thunderstorms 64 18 59 15 83 83 SSE 8 13 29.68 1005 5 8.0467 0 0
7:49 am 07:49 Cloudy with Light Thunderstorms 63 17 59 15 88 88 SSE 12 19 29.68 1005 7 11.26538 0.05 1.27
7:54 am 07:54 Cloudy with Light Thunderstorms 63 17.2 59 15 87 87 S 10 17 29.69 1005 7 11.26538 0.06 1.524
8:19 am 08:19 Cloudy with Rain 63 17.2 60 15.6 90 90 SE 7 11 29.68 1005 5 8.0467 0.04 1.016
8:29 am 08:29 Cloudy with Nearby Thunderstorms 63 17.2 60 15.6 90 90 SE 7 11 29.68 1005 5 8.0467 0.06 1.524
8:44 am 08:44 Cloudy with Light Rain 63 17 59 15 88 88 SE 12 19 29.68 1005 6 9.65604 0 0
8:54 am 08:54 Cloudy with Light Rain 63 17.2 59 15 87 87 SE 13 20 29.69 1006 7 11.26538 0.1 2.54
9:54 am 09:54 Partly Cloudy 63 17.2 59 15 87 87 SE 15 24 29.68 1005 10 16.0934 0.02 0.508
10:54 am 10:54 Cloudy 63 17.2 59 15 87 87 SE 13 20 29.67 1005 10 16.0934 0 0.0254
11:32 am 11:32 Mostly Cloudy 64 18 59 15 83 83 SE 15 24 29.65 1004 10 16.0934 0 0
11:54 am 11:54 Cloudy 64 17.8 59 15 84 84 SE 16 26 29.65 1004 10 16.0934 0 0
12:04 pm 12:04 Cloudy 64 18 59 15 83 83 SE 16 26 29.65 1004 10 16.0934 0 0
12:30 pm 12:30 Cloudy 64 18 59 15 83 83 SSE 16 26 29.62 1003 10 16.0934 0 0
12:40 pm 12:40 Cloudy 64 18 59 15 83 83 SSE 18 30 29.62 1003 10 16.0934 0 0
12:54 pm 12:54 Cloudy 65 18.3 59 15 81 81 SSE 21 33 29.63 1004 10 16.0934 0 0
1:54 pm 13:54 Cloudy 66 18.9 60 15.6 81 81 SSE 15 24 29.61 1003 10 16.0934 0 0
2:54 pm 14:54 Cloudy with Light Rain 66 18.9 61 16.1 84 84 SSE 13 20 29.61 1003 10 16.0934 0.01 0.254
3:54 pm 15:54 Mostly Cloudy 71 21.7 61 16.1 71 71 SSE 23 37 29.59 1002 10 16.0934 0 0.0254
4:54 pm 16:54 Partly Cloudy 70 21.1 61 16.1 73 73 SE 20 31 29.58 1002 10 16.0934 0 0
5:54 pm 17:54 Partly Cloudy with Nearby Thunderstorms 68 20 61 16.1 78 78 SE 18 30 29.57 1001 10 16.0934 0 0
6:45 pm 18:45 Mostly Cloudy with Thunderstorms 68 20 62 16.7 81 81 ESE 8 13 29.53 1000 10 16.0934 0 0
6:54 pm 18:54 Mostly Cloudy with Thunderstorms 68 20 62 16.7 81 81 SE 10 17 29.57 1001 10 16.0934 0 0
7:08 pm 19:08 Cloudy with Thunderstorms 64 18 61 16 88 88 Calm 29.59 1002 2.5 4.02335 0 0
7:15 pm 19:15 Cloudy with Light Thunderstorms 63 17.2 60 15.6 90 90 NE 3 6 29.59 1002 9 14.48406 0.11 2.794
7:35 pm 19:35 Cloudy with Light Thunderstorms 63 17.2 59 15 87 87 N 8 13 29.59 1002 9 14.48406 0.12 3.048
7:42 pm 19:42 Cloudy with Heavy Thunderstorms 63 17 61 16 94 94 SW 12 19 29.59 1002 1.75 2.816345 0 0
7:52 pm 19:52 Cloudy with Light Thunderstorms 63 17 61 16 94 94 S 9 15 29.62 1003 3 4.82802 0 0
7:54 pm 19:54 Cloudy with Light Thunderstorms 62 16.7 60 15.6 93 93 SE 8 13 29.62 1003 5 8.0467 0.39 9.906
8:13 pm 20:13 Cloudy with Nearby Thunderstorms 62 16.7 60 15.6 93 93 SSW 18 30 29.62 1003 4 6.43736 0.03 0.762
8:17 pm 20:17 Cloudy with Heavy Thunderstorms 61 16.1 60 15.6 97 97 SSW 8 13 29.62 1003 2.5 4.02335 0.08 2.032
8:29 pm 20:29 Cloudy with Light Thunderstorms 61 16.1 59 15 93 93 SW 7 11 29.59 1002 8 12.87472 0.18 4.572
8:42 pm 20:42 Mostly Cloudy 61 16 57 14 88 88 WNW 6 9 29.59 1002 10 16.0934 0 0
8:54 pm 20:54 Partly Cloudy 61 16.1 58 14.4 90 90 NW 5 7 29.61 1003 10 16.0934 0.18 4.572
9:54 pm 21:54 Clear 60 15.6 58 14.4 93 93 W 5 7 29.64 1004 10 16.0934 0 0
10:54 pm 22:54 Clear 59 15 57 13.9 93 93 Calm 29.69 1005 10 16.0934 0 0
11:54 pm 23:54 Clear 57 13.9 56 13.3 96 96 WNW 5 7 29.7 1006 10 16.0934 0 0

Powered by AerisWeather